Location: ??????????
(54.7560°N, 39.1389°E)
Time: 06:09:03
(UTC+00:00)

Cosmos 1437 Rocket - Pass Details

Date: 19 May 2025
Orbit: 456 x 500 km, 81.2° (Epoch: 15 June)

Event Time Altitude Azimuth Distance (km) Brightness Sun altitude
Exits shadow 22:26:54 16° 150° (SSE) 1,283 4.3 -13.9°
Maximum altitude 22:29:08 31° 95° (E) 828 3.8 -13.8°
Drops below altitude 10° 22:32:18 10° 31° (NNE) 1,615 6.5 -13.7°
Sets 22:34:30 0° 21° (NNE) 2,493 8.2 -13.6°
